Regional Weather Roundup
Issued by NWS Northern Indiana

Home | Current Version | Previous Version | Text Only | Print | Product List | Glossary Off
Versions: 1 2 3 4 5 6 7 8 9 10 11 12 13 14 15 16 17 18 19 20 21 22 23 24 25 26 27 28 29 30 31 32 33 34 35 36 37 38 39 40 41 42 43 44 45 46 47 48 49 50

000
ASUS43 KIWX 210510
RWRIWX

KIWX WEATHER ROUNDUP
NATIONAL WEATHER SERVICE NORTHERN INDIANA
100 AM EDT TUE OCT 21 2014

NOTE: "FAIR" INDICATES FEW OR NO CLOUDS BELOW 12,000 FEET WITH NO
SIGNIFICANT WEATHER AND/OR OBSTRUCTIONS TO VISIBILITY.

* THESE STATIONS ARE NOT UNDER NWS QUALITY CONTROL. THEY ALSO MAY NOT
  REPORT WEATHER SUCH AS PRECIPITATION OR FOG.

INZ001>027-210600-
NORTHERN INDIANA

CITY           SKY/WX    TMP DP  RH WIND       PRES   REMARKS
GARY*          CLOUDY    54  47  77 N9        29.99S
VALPARAISO     CLOUDY    50  44  80 N3        29.98F
MICHIGAN CITY* CLOUDY    52  41  66 N9        29.98S
LAPORTE*       CLOUDY    52  47  82 N6        29.97F
KNOX*          CLOUDY    49  44  81 NW5       29.96F
SOUTH BEND     CLOUDY    51  45  79 N6        29.97F
GOSHEN         CLOUDY    50  43  77 NW8       29.94F
MONTICELLO*    CLOUDY    47  46  94 CALM      29.97S
LOGANSPORT*    CLOUDY    50  43  76 NW3       29.97F
ROCHESTER*     CLOUDY    52  46  82 NW8       29.96S
WARSAW*        CLOUDY    50  45  81 NW7       29.94F
ANGOLA*        PTCLDY    48  43  81 NW5       29.92S
FORT WAYNE     MOCLDY    51  44  77 W7        29.93F
HUNTINGTON*    CLOUDY    50  45  81 NW6       29.94S
PERU/GRISSOM   CLOUDY    50  50 100 N8        29.96S
MARION*        PTCLDY    48  44  88 NW6       29.95S

$$
INZ028>050-210600-
CENTRAL INDIANA

CITY           SKY/WX    TMP DP  RH WIND       PRES   REMARKS
LAFAYETTE      CLOUDY    50  46  86 NW3       29.98S
KOKOMO*        CLOUDY    50  45  81 NW7       29.96F
MUNCIE*        MOCLDY    50  47  89 W6        29.94S
INDIANAPOLIS   PTCLDY    52  45  77 N8        29.96S

$$
MIZ043>046-050>051-056>058-064>065-071>073-077>080-210600-
SOUTHWEST LOWER MICHIGAN

CITY           SKY/WX    TMP DP  RH WIND       PRES   REMARKS
BATTLE CREEK   CLOUDY    49  41  74 NW8       29.93S
BENTON HARBOR  LGT RAIN  47  45  93 VRB3      29.96F
COLDWATER*     CLOUDY    49  44  82 NW8       29.92S
HILLSDALE*     CLOUDY    49  46  87 NW10      29.90S
HOLLAND        CLOUDY    49  44  83 NW6       29.97S
GRAND RAPIDS   CLOUDY    48  44  86 NW13      29.94S
KALAMAZOO      CLOUDY    48  42  80 N9        29.94S
STURGIS*       CLEAR     46  43  87 NW8       29.93S
THREE RIVERS*  CLOUDY    48  42  79 NW3       29.94S

$$
OHZ001>008-015>018-024>025-210600-
NORTHWEST OHIO

CITY           SKY/WX    TMP DP  RH WIND       PRES   REMARKS
WAUSEON*       CLOUDY    52  48  87 VRB6      29.89S
DEFIANCE       CLOUDY    53  46  77 NW7       29.90S
FINDLAY        CLOUDY    51  48  89 W9        29.87S
TOLEDO EXPRESS CLOUDY    52  48  86 NW6       29.87F
TOLEDO METCALF PTCLDY    52  47  83 NW9       29.88S
LIMA           CLOUDY    51  48  89 NW8       29.89S

$$
AND FOR LAKE MICHIGAN COASTAL AND OPEN LAKE BUOY OBSERVATIONS

STATION/POSITION TEMP    WIND        PRES    VSBY  WAVE
                 AIR SEA DIR/SP/G                  HT/PER
                 (F)     (DEG/KT/KT) (MB)    (MI)  (FT/S)
CALUMET HARBOR    53     330/ 11/ 13 1014.4S
MICHIGAN CITY     53     340/ 19/ 22   N/A
SAINT JOSEPH      52                 1014.6F
SOUTH LAKE BUOY   51 54  350/ 17/ 23 1015.2F         3/ 6

$$
&&


USA.gov is the U.S. government's official web portal to all federal, state and local government web resources and services.